Ketchikan, AK

9:44 PM AKDT on September 20, 2018 (GMT -0800)
Ketchikan International

Weather History for PAKT - June, 2018

Change the Weather History Date:

Monday, June 25, 2018

  Actual Average Record
Temperature  
Mean Temperature 52 °F -  
Max Temperature 64 °F 61 °F 75 °F (1980)
Min Temperature 43 °F 48 °F 39 °F (1965)
Degree Days  
Heating Degree Days 12    
Growing Degree Days 2 (Base 50)    
Moisture  
Dew Point 45 °F    
Average Humidity 71    
Maximum Humidity 97    
Minimum Humidity 53    
Precipitation  
Precipitation 0.00 in - - ()
Sea Level Pressure  
Sea Level Pressure 29.97 in    
Wind  
Wind Speed 4 mph (NW)    
Max Wind Speed 14 mph    
Max Gust Speed 23 mph    
Visibility 10 miles    
Events      
Averages and records for this station are not official NWS values.
T = Trace of Precipitation, MM = Missing Value Source: NWS Daily Summary

Daily Weather History Graph

Daily Weather History Graph

Search for Another Location

Airport or City:

Astronomy

Jun. 25, 2018 Rise Set
Actual Time 4:06 AM AKDT 9:32 PM AKDT
Civil Twilight 3:06 AM AKDT 10:32 PM AKDT
Nautical Twilight 1:21 AM AKDT 12:17 AM AKDT
Astronomical Twilight Sun does not set Sun does not set
Moon 7:05 PM AKDT (6/25) 3:00 AM AKDT (6/25)
Length of Visible Light 19h 25m
Length of Day
17h 26m
Waxing Gibbous, 95% of the Moon is Illuminated
Jun 25
Waxing Gibbous
Jun 27
Full
Jul 5
Last Quarter
Jul 12
New
Jul 19
First Quarter

Hourly Weather History & Observations

Time (AKDT) Temp. Dew Point Humidity Pressure Visibility Wind Dir Wind Speed Gust Speed Precip Events Conditions
12:53 AM 48.9 °F 46.0 °F 90% 29.91 in 10.0 mi SE 4.6 mph - N/A   Clear
1:53 AM 48.0 °F 46.0 °F 93% 29.90 in 10.0 mi SSE 4.6 mph - N/A   Clear
2:53 AM 45.0 °F 43.0 °F 93% 29.90 in 10.0 mi Calm Calm - N/A   Clear
3:53 AM 43.0 °F 42.1 °F 97% 29.91 in 10.0 mi Calm Calm - N/A   Clear
4:53 AM 46.0 °F 44.1 °F 93% 29.91 in 10.0 mi Calm Calm - N/A   Overcast
5:43 AM 50.0 °F 46.9 °F 89% 29.92 in 10.0 mi Calm Calm - N/A   Overcast
5:53 AM 50.0 °F 46.9 °F 89% 29.92 in 10.0 mi SSE 3.5 mph - N/A   Overcast
6:53 AM 51.1 °F 48.0 °F 89% 29.92 in 10.0 mi Calm Calm - N/A   Overcast
7:53 AM 54.0 °F 48.9 °F 83% 29.92 in 10.0 mi Calm Calm - N/A   Overcast
8:53 AM 57.2 °F 48.2 °F 72% 29.93 in 10.0 mi NNW 6.9 mph - N/A   Overcast
9:53 AM 57.2 °F 48.2 °F 72% 29.94 in 10.0 mi NNW 6.9 mph - N/A   Overcast
10:53 AM 60.8 °F 46.4 °F 59% 29.94 in 10.0 mi North 6.9 mph - N/A   Overcast
11:53 AM 60.8 °F 46.4 °F 59% 29.95 in 10.0 mi NNW 6.9 mph - N/A   Overcast
12:53 PM 60.8 °F 46.4 °F 59% 29.96 in 10.0 mi NNW 8.1 mph - N/A   Overcast
1:53 PM 60.8 °F 51.8 °F 72% 29.97 in 10.0 mi SE 12.7 mph - N/A   Overcast
2:53 PM 59.0 °F 48.2 °F 67% 30.00 in 10.0 mi Variable 4.6 mph - N/A   Mostly Cloudy
3:53 PM 62.6 °F 48.2 °F 59% 30.01 in 10.0 mi Calm Calm - N/A   Mostly Cloudy
4:53 PM 62.6 °F 46.4 °F 55% 30.01 in 10.0 mi Variable 4.6 mph - N/A   Mostly Cloudy
5:53 PM 62.6 °F 46.4 °F 55% 30.01 in 10.0 mi NW 5.8 mph - N/A   Scattered Clouds
6:53 PM 60.8 °F 46.4 °F 59% 30.01 in 10.0 mi Variable 6.9 mph - N/A   Mostly Cloudy
7:53 PM 59.0 °F 44.1 °F 58% 30.02 in 10.0 mi Variable 6.9 mph - N/A   Overcast
8:53 PM 57.9 °F 41.0 °F 53% 30.03 in 10.0 mi WNW 9.2 mph 17.3 mph N/A   Mostly Cloudy
9:53 PM 55.9 °F 39.0 °F 53% 30.04 in 10.0 mi WNW 13.8 mph 19.6 mph N/A   Scattered Clouds
10:53 PM 55.0 °F 37.9 °F 53% 30.06 in 10.0 mi WNW 6.9 mph 16.1 mph N/A   Mostly Cloudy
11:53 PM 54.0 °F 39.9 °F 59% 30.08 in 10.0 mi WNW 11.5 mph 23.0 mph N/A   Clear